Location: Kellogg
(38.0159°N, 90.0546°W)
Time: 15:01:43
(UTC+00:00)

Vanguard 1 Rocket - Pass Details

Date: 16 September 2024
Orbit: 650 x 4218 km, 34.3° (Epoch: 07 October)

Event Time Altitude Azimuth Distance (km) Brightness Sun altitude
Rises 08:56:22 0° 234° (SW) 4,981 - -31.8°
Reaches altitude 10° 08:59:03 10° 230° (SW) 4,334 - -31.4°
Exits shadow 09:05:42 42° 211° (SSW) 3,235 9.7 -30.3°
Maximum altitude 09:11:48 62° 153° (SSE) 3,218 10.0 -29.3°
Drops below altitude 10° 09:34:50 10° 80° (E) 7,298 12.9 -25.2°
Sets 09:41:03 0° 78° (ENE) 8,455 13.6 -24.1°
